Starlink 3075

operational
NORAD ID: 49409 Int'l Des: 2021-104 Owner: SPXS Country: US Constellation: starlink
LEOCIRCULAR

About Starlink 3075

Description loading...

Live Position

Loading 3D Globe...

Upcoming Passes

Altitude History

Altitude vs Time

uPlot chart will show altitude changes over time

Two-Line Element Set

1 49409U 21104B 25257.39557904 -.00001024 00000-0 -46254-4 0 9991
2 49409 53.2166 300.5396 0001176 88.1511 271.9616 15.08836474212021
Epoch: Sep 14, 2025 • Age: 23 hours

Current Status

Altitude 559.0 km
Velocity 7.58 km/s
Sub-Earth Point -52.95°S, 87.03°E
Launch Date Nov 13, 2021
Age 3.8 years
Type internet

Technical Details

Classification Payload
Mass 290.00 kg
Dry Mass 270.00 kg
Total Mass 290.00 kg
Length 0.20 m
Diameter 2.80 m
Span 9.00 m
Shape Box + pan
Manufacturer SPXS
Bus Type Starlink
Phase Status In Orbit
Owner/State SPXS/US

Large Constellations

Loading constellations...